Location: Tierz
(42.1336°N, 0.3549°W)
Time: 22:42:54
(UTC+00:00)

Timation 2 Rocket - Pass Details

Date: 29 October 2020
Orbit: 904 x 1077 km, 70.0° (Epoch: 04 December)

Event Time Altitude Azimuth Distance (km) Brightness Sun altitude
Rises 17:31:38 0° 334° (NNW) 3,756 7.3 -6.7°
Reaches altitude 10° 17:34:11 10° 335° (NNW) 2,825 6.6 -7.2°
Maximum altitude 17:40:52 87° 65° (ENE) 1,060 4.2 -8.4°
Drops below altitude 10° 17:47:43 10° 155° (SSE) 2,896 6.3 -9.7°
Sets 17:50:21 0° 156° (SSE) 3,855 7.0 -10.2°
